Previsão horária em Abay

Hoje, 10 Abril, Sábado

Tempo Temperatura Precipitação Vento Pressão Humidade
00:00 +13°C° 0 mm 2 m/s 718 mmHg 50%
01:00 +12°C° 0 mm 2 m/s 718 mmHg 52%
02:00 +10°C° 0 mm 2 m/s 718 mmHg 54%
03:00 +10°C° 0 mm 2 m/s 718 mmHg 55%
04:00 +11°C° 0 mm 1 m/s 718 mmHg 57%
05:00 +10°C° 0 mm 1 m/s 718 mmHg 58%
06:00 +12°C° 0 mm 1 m/s 718 mmHg 53%
07:00 +13°C° 0 mm 1 m/s 719 mmHg 49%
08:00 +15°C° 0 mm 1 m/s 719 mmHg 44%
09:00 +16°C° 0 mm 1 m/s 719 mmHg 40%
10:00 +19°C° 0 mm 1 m/s 719 mmHg 36%
11:00 +21°C° 0 mm 1 m/s 719 mmHg 32%
12:00 +21°C° 0 mm 2 m/s 718 mmHg 30%
13:00 +23°C° 0 mm 2 m/s 718 mmHg 28%
14:00 +23°C° 0 mm 2 m/s 718 mmHg 26%
15:00 +22°C° 0 mm 3 m/s 718 mmHg 26%
16:00 +22°C° 0 mm 3 m/s 718 mmHg 26%
17:00 +22°C° 0 mm 4 m/s 718 mmHg 27%
18:00 +20°C° 0 mm 3 m/s 718 mmHg 30%
19:00 +18°C° 0 mm 3 m/s 717 mmHg 33%
20:00 +16°C° 0 mm 3 m/s 717 mmHg 37%
21:00 +13°C° 0 mm 3 m/s 718 mmHg 43%
22:00 +11°C° 0 mm 3 m/s 718 mmHg 50%
23:00 +10°C° 0 mm 3 m/s 718 mmHg 57%

Amanhã, 11 Abril, Domingo

Tempo Temperatura Precipitação Vento Pressão Humidade
00:00 +9°C° 0 mm 2 m/s 718 mmHg 57%
01:00 +8°C° 0 mm 2 m/s 717 mmHg 57%
02:00 +7°C° 0 mm 2 m/s 717 mmHg 56%
03:00 +6°C° 0 mm 2 m/s 717 mmHg 58%
04:00 +7°C° 0 mm 1 m/s 717 mmHg 59%
05:00 +6°C° 0 mm 1 m/s 717 mmHg 61%
06:00 +7°C° 0 mm 1 m/s 717 mmHg 58%
07:00 +7°C° 0 mm 2 m/s 718 mmHg 55%
08:00 +8°C° 0 mm 2 m/s 718 mmHg 52%
09:00 +9°C° 0 mm 2 m/s 718 mmHg 49%
10:00 +12°C° 0 mm 2 m/s 718 mmHg 46%
11:00 +12°C° 0 mm 3 m/s 718 mmHg 43%
12:00 +14°C° 0 mm 3 m/s 718 mmHg 42%
13:00 +16°C° 0 mm 3 m/s 718 mmHg 41%
14:00 +17°C° 0 mm 3 m/s 718 mmHg 39%
15:00 +17°C° 0 mm 3 m/s 718 mmHg 40%
16:00 +17°C° 0 mm 3 m/s 718 mmHg 41%
17:00 +17°C° 0 mm 3 m/s 718 mmHg 41%
18:00 +14°C° 0 mm 3 m/s 718 mmHg 48%
19:00 +13°C° 0 mm 3 m/s 718 mmHg 56%
20:00 +12°C° 0 mm 2 m/s 718 mmHg 63%
21:00 +10°C° 0 mm 2 m/s 718 mmHg 66%
22:00 +11°C° 0 mm 1 m/s 717 mmHg 70%
23:00 +10°C° 0 mm 1 m/s 717 mmHg 73%

Depois de amanhã, 12 Abril, Segunda-feira

Tempo Temperatura Precipitação Vento Pressão Humidade
00:00 +10°C° 0 mm 1 m/s 717 mmHg 74%
01:00 +8°C° 0 mm 2 m/s 717 mmHg 75%
02:00 +8°C° 0 mm 2 m/s 717 mmHg 76%
03:00 +7°C° 0 mm 2 m/s 717 mmHg 79%
04:00 +7°C° 0 mm 2 m/s 717 mmHg 81%
05:00 +6°C° 0 mm 2 m/s 718 mmHg 84%
06:00 +7°C° 0 mm 2 m/s 718 mmHg 77%
07:00 +9°C° 0 mm 3 m/s 718 mmHg 70%
08:00 +10°C° 0 mm 3 m/s 718 mmHg 64%
09:00 +12°C° 0 mm 3 m/s 718 mmHg 58%
10:00 +14°C° 0 mm 3 m/s 718 mmHg 53%
11:00 +17°C° 0 mm 2 m/s 718 mmHg 47%
12:00 +17°C° 0.1 mm 2 m/s 718 mmHg 46%
13:00 +18°C° 0.1 mm 2 m/s 718 mmHg 45%
14:00 +19°C° 0.1 mm 2 m/s 718 mmHg 43%
15:00 +19°C° 0.1 mm 3 m/s 718 mmHg 44%
16:00 +19°C° 0.1 mm 3 m/s 718 mmHg 45%
17:00 +19°C° 0.1 mm 4 m/s 717 mmHg 46%
18:00 +18°C° 0.2 mm 4 m/s 717 mmHg 51%
19:00 +16°C° 0.2 mm 3 m/s 717 mmHg 56%
20:00 +14°C° 0.2 mm 3 m/s 718 mmHg 61%
21:00 +14°C° 0 mm 3 m/s 717 mmHg 62%
22:00 +14°C° 0 mm 3 m/s 717 mmHg 62%
23:00 +14°C° 0 mm 3 m/s 717 mmHg 62%

13 Abril, Terça-feira

Tempo Temperatura Precipitação Vento Pressão Humidade
00:00 +14°C° 0 mm 3 m/s 717 mmHg 61%
01:00 +14°C° 0 mm 3 m/s 717 mmHg 61%
02:00 +15°C° 0 mm 2 m/s 717 mmHg 60%
03:00 +14°C° 0 mm 2 m/s 717 mmHg 62%
04:00 +13°C° 0 mm 2 m/s 717 mmHg 64%
05:00 +13°C° 0 mm 2 m/s 717 mmHg 66%
06:00 +12°C° 0 mm 3 m/s 718 mmHg 64%
07:00 +12°C° 0 mm 3 m/s 718 mmHg 62%
08:00 +12°C° 0 mm 3 m/s 719 mmHg 60%
09:00 +14°C° 0 mm 3 m/s 719 mmHg 55%
10:00 +16°C° 0 mm 3 m/s 719 mmHg 49%
11:00 +18°C° 0 mm 3 m/s 719 mmHg 43%
12:00 +18°C° 0 mm 3 m/s 719 mmHg 41%
13:00 +19°C° 0 mm 3 m/s 719 mmHg 38%
14:00 +20°C° 0 mm 3 m/s 719 mmHg 35%
15:00 +20°C° 0 mm 2 m/s 719 mmHg 36%
16:00 +21°C° 0 mm 1 m/s 719 mmHg 38%
17:00 +21°C° 0 mm 1 m/s 719 mmHg 39%
18:00 +19°C° 0 mm 2 m/s 719 mmHg 41%
19:00 +18°C° 0 mm 3 m/s 719 mmHg 43%
20:00 +17°C° 0 mm 4 m/s 719 mmHg 45%
21:00 +15°C° 0 mm 4 m/s 719 mmHg 51%
22:00 +15°C° 0 mm 4 m/s 719 mmHg 57%
23:00 +14°C° 0 mm 4 m/s 718 mmHg 63%

14 Abril, Quarta-feira

Tempo Temperatura Precipitação Vento Pressão Humidade
00:00 +14°C° 0 mm 4 m/s 718 mmHg 66%
01:00 +13°C° 0 mm 3 m/s 718 mmHg 68%
02:00 +13°C° 0 mm 3 m/s 718 mmHg 71%
03:00 +12°C° 0 mm 3 m/s 718 mmHg 71%
04:00 +13°C° 0 mm 2 m/s 718 mmHg 71%
05:00 +13°C° 0 mm 1 m/s 718 mmHg 71%
06:00 +14°C° 0 mm 1 m/s 718 mmHg 67%
07:00 +15°C° 0 mm 1 m/s 718 mmHg 62%
08:00 +16°C° 0 mm 1 m/s 718 mmHg 57%
09:00 +18°C° 0 mm 1 m/s 718 mmHg 53%
10:00 +18°C° 0 mm 2 m/s 718 mmHg 49%
11:00 +20°C° 0 mm 2 m/s 718 mmHg 45%
12:00 +21°C° 0 mm 2 m/s 718 mmHg 41%
13:00 +23°C° 0 mm 2 m/s 718 mmHg 38%
14:00 +24°C° 0 mm 3 m/s 717 mmHg 34%
15:00 +24°C° 0 mm 3 m/s 717 mmHg 34%
16:00 +22°C° 0 mm 3 m/s 717 mmHg 34%
17:00 +22°C° 0 mm 3 m/s 716 mmHg 34%
18:00 +21°C° 0 mm 3 m/s 716 mmHg 39%
19:00 +19°C° 0 mm 3 m/s 716 mmHg 43%
20:00 +17°C° 0 mm 3 m/s 715 mmHg 48%
21:00 +17°C° 0 mm 2 m/s 715 mmHg 50%
22:00 +16°C° 0 mm 2 m/s 714 mmHg 53%
23:00 +15°C° 0 mm 2 m/s 714 mmHg 55%

15 Abril, Quinta-feira

Tempo Temperatura Precipitação Vento Pressão Humidade
00:00 +15°C° 0 mm 2 m/s 714 mmHg 56%
01:00 +15°C° 0 mm 2 m/s 713 mmHg 57%
02:00 +15°C° 0 mm 2 m/s 713 mmHg 58%
03:00 +15°C° 0 mm 2 m/s 713 mmHg 57%
04:00 +15°C° 0 mm 2 m/s 713 mmHg 57%
05:00 +15°C° 0 mm 1 m/s 713 mmHg 57%
06:00 +18°C° 0 mm 1 m/s 713 mmHg 54%
07:00 +19°C° 0 mm 1 m/s 714 mmHg 51%
08:00 +20°C° 0 mm 1 m/s 714 mmHg 48%
09:00 +22°C° 0 mm 1 m/s 714 mmHg 44%
10:00 +23°C° 0 mm 2 m/s 714 mmHg 40%
11:00 +25°C° 0 mm 2 m/s 714 mmHg 36%
12:00 +25°C° 0 mm 3 m/s 714 mmHg 35%
13:00 +26°C° 0 mm 3 m/s 714 mmHg 34%
14:00 +27°C° 0 mm 3 m/s 714 mmHg 33%
15:00 +25°C° 0.1 mm 4 m/s 714 mmHg 39%
16:00 +23°C° 0.1 mm 4 m/s 714 mmHg 45%
17:00 +21°C° 0.1 mm 5 m/s 714 mmHg 52%
18:00 +19°C° 0.4 mm 4 m/s 714 mmHg 59%
19:00 +17°C° 0.4 mm 2 m/s 714 mmHg 65%
20:00 +16°C° 0.4 mm 1 m/s 714 mmHg 72%
21:00 +15°C° 0.1 mm 1 m/s 714 mmHg 71%
22:00 +15°C° 0.1 mm 1 m/s 714 mmHg 71%
23:00 +15°C° 0.1 mm 1 m/s 714 mmHg 70%
Mostrar mais